Starlink 31961

operational
NORAD ID: 59894 Int'l Des: 2024-100 Owner: SPXS Country: US Constellation: starlink
LEOCIRCULAR

About Starlink 31961

Description loading...

Live Position

Loading 3D Globe...

Upcoming Passes

Altitude History

Altitude vs Time

uPlot chart will show altitude changes over time

Two-Line Element Set

1 59894U 24100K 26095.01363712 -.00002449 00000-0 -79503-4 0 9996
2 59894 43.0059 329.7377 0000913 255.6323 104.4428 15.27579986105261
Epoch: Apr 5, 2026 • Age: 12 hours

Current Status

Altitude 483.0 km
Velocity 7.63 km/s
Sub-Earth Point 23.53°N, 106.43°E
Launch Date May 28, 2024
Age 1.8 years
Type internet

Technical Details

Classification Payload
Mass 730.00 kg
Dry Mass 700.00 kg
Total Mass 730.00 kg
Length 0.30 m
Diameter 4.10 m
Span 29.00 m
Shape Box + pan
Manufacturer SPXS
Bus Type Starlink V2M
Phase Status In Orbit
Owner/State SPXS/US

Large Constellations

Loading constellations...